Home > Weather > Constantine > Past weeks

Flag for Algeria Weather for the Past 2 Weeks in Constantine, Algeria

Now
75 °F

Sunny.


Feels Like: 77 °F
Forecast: 43 / 77 °F
Wind: 12 mph from North

Location: Constantine Airport

Current Time: May 4, 2016 at 5:15:17 PM

Latest Report: May 4, 2016 at 4:00 PM


Visibility: 10 mi

Pressure: 30.07 "Hg (28.20 "Hg at 557m altitude)

Humidity: 31%

Dew Point: 43 °F

Location of ConstantineLocation

Historic Weather in Constantine — Graph

°F

Constantine Temperature Yesterday

Maximum temperature yesterday: 68 °F (at 2:00 PM)
Minimum temperature yesterday: 41 °F (at 2:00 AM)
Average temperature yesterday: 54 °F

High & Low Weather Summary for the Past Weeks

 TemperatureHumidityPressure
High88 °F (Apr 20, 2:30 PM)94% (Apr 21, 8:00 AM)30.24 "Hg (Apr 21, 8:00 AM)
Low37 °F (Apr 26, 5:30 AM)25% (Apr 20, 1:30 PM)29.83 "Hg (Apr 28, 4:00 AM)
Average59 °F69%30.03 "Hg
* Reported Apr 19 3:00 PM — May 4 3:30 PM, Constantine, Weather by CustomWeather, © 2016

Note: Actual official high and low records may vary slightly from our data, if they occured in-between our weather recording intervals... More about our weather records

Advertising

Constantine Weather History for the Previous 24 Hours

Scroll right to see more
 ConditionsComfort  
Time TempWeatherWind HumidityBarometerVisibility
3:30 PM
Wed, May 4
75 °FSunny.14 mph25%30.07 "Hg10 mi
3:00 PM75 °FSunny.14 mph25%30.07 "Hg10 mi
2:30 PM75 °FSunny.14 mph29%30.09 "Hg10 mi
2:00 PM77 °FSunny.14 mph28%30.09 "Hg10 mi
1:30 PM73 °FSunny.10 mph31%30.09 "Hg10 mi
12:30 PM72 °FPassing clouds.8 mph33%30.12 "HgN/A
12:00 PM70 °FPassing clouds.6 mph35%30.12 "HgN/A
11:30 AM70 °FSunny.3 mph38%30.15 "Hg10 mi
11:00 AM68 °FSunny.3 mph40%30.15 "Hg10 mi
10:00 AM64 °FSunny.3 mph43%30.15 "Hg10 mi
9:00 AM59 °FSunny.3 mph48%30.18 "Hg10 mi
8:30 AM55 °FSunny.No wind55%30.15 "Hg10 mi
8:00 AM50 °FSunny.No wind67%30.15 "Hg10 mi
7:30 AM48 °FSunny.No wind71%30.15 "Hg10 mi
7:00 AM46 °FSunny.No wind71%30.15 "Hg10 mi
6:30 AM41 °FSunny.No wind76%30.18 "Hg10 mi
6:00 AM37 °FSunny.No wind81%30.15 "Hg10 mi
5:30 AM39 °FClear.No wind75%30.15 "Hg10 mi
5:00 AM39 °FClear.2 mph75%30.15 "Hg10 mi
4:30 AM41 °FClear.No wind76%30.15 "Hg10 mi
4:00 AM39 °FClear.No wind81%30.15 "Hg10 mi
3:30 AM39 °FClear.No wind75%30.15 "Hg10 mi
3:00 AM41 °FClear.No wind70%30.18 "Hg10 mi
2:30 AM43 °FClear.No wind71%30.18 "Hg10 mi
2:00 AM43 °FClear.No wind71%30.18 "Hg10 mi
1:30 AM41 °FClear.No wind76%30.21 "Hg10 mi
1:00 AM43 °FClear.6 mph66%30.21 "Hg10 mi
12:30 AM45 °FClear.No wind66%30.21 "Hg10 mi
12:00 AM45 °FClear.2 mph66%30.21 "Hg10 mi
11:30 PM
Tue, May 3
45 °FClear.3 mph71%30.21 "Hg10 mi
11:00 PM46 °FClear.2 mph66%30.21 "Hg10 mi
10:30 PM46 °FClear.5 mph66%30.21 "Hg10 mi
10:00 PM48 °FClear.No wind66%30.21 "Hg10 mi
9:30 PM46 °FClear.2 mph71%30.21 "Hg10 mi
9:00 PM50 °FPassing clouds.3 mph62%30.21 "HgN/A
8:30 PM52 °FClear.2 mph58%30.21 "Hg10 mi
8:00 PM54 °FClear.5 mph54%30.21 "Hg10 mi
7:30 PM55 °FPassing clouds.6 mph51%30.21 "HgN/A
7:00 PM59 °FPassing clouds.8 mph45%30.18 "HgN/A
6:30 PM61 °FPassing clouds.8 mph52%30.18 "HgN/A
6:00 PM63 °FPassing clouds.12 mph45%30.18 "HgN/A
5:30 PM64 °FPassing clouds.10 mph43%30.18 "HgN/A
5:00 PM64 °FPassing clouds.9 mph43%30.21 "HgN/A
Weather by CustomWeather, © 2016

See weather overviewHow to use our weather pages